Location: Fours
(44.3167°N, 6.7000°E)
Time: 03:06:23
(UTC+00:00)

Cosmos 2098 - Pass Details

Date: 07 June 2022
Orbit: 387 x 1576 km, 82.9° (Epoch: 04 July)

Event Time Altitude Azimuth Distance (km) Brightness Sun altitude
Rises 02:15:00 0° 343° (NNW) 2,315 8.5 -13.3°
Reaches altitude 10° 02:16:56 10° 335° (NNW) 1,497 7.4 -13.1°
Maximum altitude 02:19:54 38° 265° (W) 711 5.0 -12.7°
Enters shadow 02:21:58 20° 207° (SSW) 1,211 6.0 -12.5°
